Simultaneous Nadir Overpasses (SNOs) Predictions

Prediction of SNOs between GOES-16 and NOAA-19 Satellite Orbit:

Table of predicted SNOs for the next 14.0 days since TLE Epoch: 1/7/2023
Index Date Time (GOES-16) GOES-16 Lat,Lon NOAA-19 Lat,Lon Distance(km) Time Diff (sec)
1 01/08/2023 01:06:26 0.04, -75.18 0.49, -73.12 234.56 80
2 01/10/2023 13:29:28 -0.03, -75.22 0.59, -77.96 312.01 80
3 01/11/2023 13:14:53 -0.03, -75.23 -0.09, -75.05 21.06 80
4 01/12/2023 13:02:56 -0.03, -75.24 -0.72, -72.14 353.89 80
5 01/15/2023 01:26:00 0.02, -75.25 -0.35, -76.98 196.92 80
6 01/16/2023 01:11:24 0.02, -75.26 0.29, -74.07 136.46 80
7 01/17/2023 00:59:28 0.02, -75.28 1.00, -71.17 469.83 80
8 01/18/2023 13:34:26 -0.02, -75.32 0.78, -78.91 409.08 80
9 01/19/2023 13:22:30 -0.03, -75.33 0.14, -75.99 75.77 80
10 01/20/2023 13:10:35 -0.02, -75.35 -0.56, -73.09 257.74 80
